Time,TemperatureF,DewpointF,PressureIn,WindDirection,WindDirectionDegrees,WindSpeedMPH,WindSpeedGustMPH,Humidity,HourlyPrecipIn,Conditions,Clouds,dailyrainin,SoftwareType,DateUTC
2013-04-22 00:03:00,50.0,-99.9,-100.00,NNE,30,0.0,0.0,-999,-99.99,,,-99.99,,2013-04-22 05:03:00,
2013-04-22 00:12:00,50.0,-99.9,-100.00,NNE,30,0.0,0.0,-999,-99.99,,,-99.99,,2013-04-22 05:12:00,
2013-04-22 00:23:00,50.0,-99.9,-100.00,NNE,30,0.0,0.0,-999,-99.99,,,-99.99,,2013-04-22 05:23:00,
2013-04-22 00:33:00,49.0,-99.9,-100.00,NNE,30,0.0,0.0,-999,-99.99,,,-99.99,,2013-04-22 05:33:00,
2013-04-22 00:42:00,49.0,-99.9,-100.00,NNE,30,0.0,0.0,-999,-99.99,,,-99.99,,2013-04-22 05:42:00,
2013-04-22 00:52:00,49.0,-99.9,-100.00,NNE,30,0.0,0.0,-999,-99.99,,,-99.99,,2013-04-22 05:52:00,
2013-04-22 01:02:00,48.0,-99.9,-100.00,NNE,30,0.0,0.0,-999,-99.99,,,-99.99,,2013-04-22 06:02:00,
2013-04-22 01:12:00,48.0,-99.9,-100.00,NNE,30,0.0,0.0,-999,-99.99,,,-99.99,,2013-04-22 06:12:00,
2013-04-22 01:22:00,48.0,-99.9,-100.00,NNE,30,0.0,0.0,-999,-99.99,,,-99.99,,2013-04-22 06:22:00,
2013-04-22 01:32:00,47.0,-99.9,-100.00,NNE,30,0.0,0.0,-999,-99.99,,,-99.99,,2013-04-22 06:32:00,
2013-04-22 01:42:00,47.0,-99.9,-100.00,NNE,30,0.0,0.0,-999,-99.99,,,-99.99,,2013-04-22 06:42:00,
2013-04-22 01:52:00,47.0,-99.9,-100.00,NNE,30,0.0,0.0,-999,-99.99,,,-99.99,,2013-04-22 06:52:00,
2013-04-22 02:01:00,47.0,-99.9,-100.00,NNE,30,0.0,0.0,-999,-99.99,,,-99.99,,2013-04-22 07:01:00,
2013-04-22 02:12:00,47.0,-99.9,-100.00,NNE,30,0.0,0.0,-999,-99.99,,,-99.99,,2013-04-22 07:12:00,
2013-04-22 02:22:00,47.0,-99.9,-100.00,NNE,30,0.0,0.0,-999,-99.99,,,-99.99,,2013-04-22 07:22:00,
2013-04-22 02:32:00,46.0,-99.9,-100.00,NNE,30,0.0,0.0,-999,-99.99,,,-99.99,,2013-04-22 07:32:00,
2013-04-22 02:42:00,46.0,-99.9,-100.00,NNE,30,0.0,0.0,-999,-99.99,,,-99.99,,2013-04-22 07:42:00,
2013-04-22 02:52:00,46.0,-99.9,-100.00,NNE,30,0.0,0.0,-999,-99.99,,,-99.99,,2013-04-22 07:52:00,
2013-04-22 03:02:00,46.0,-99.9,-100.00,NNE,30,0.0,0.0,-999,-99.99,,,-99.99,,2013-04-22 08:02:00,
2013-04-22 03:11:00,46.0,-99.9,-100.00,NNE,30,0.0,0.0,-999,-99.99,,,-99.99,,2013-04-22 08:11:00,
2013-04-22 03:22:00,46.0,-99.9,-100.00,NNE,30,0.0,0.0,-999,-99.99,,,-99.99,,2013-04-22 08:22:00,
2013-04-22 03:32:00,46.0,-99.9,-100.00,NNE,30,0.0,0.0,-999,-99.99,,,-99.99,,2013-04-22 08:32:00,
2013-04-22 03:42:00,46.0,-99.9,-100.00,NNE,30,0.0,0.0,-999,-99.99,,,-99.99,,2013-04-22 08:42:00,
2013-04-22 03:53:00,46.0,-99.9,-100.00,NNE,30,0.0,0.0,-999,-99.99,,,-99.99,,2013-04-22 08:53:00,
2013-04-22 04:01:00,46.0,-99.9,-100.00,NNE,30,0.0,0.0,-999,-99.99,,,-99.99,,2013-04-22 09:01:00,
2013-04-22 04:11:00,46.0,-99.9,-100.00,NNE,30,0.0,0.0,-999,-99.99,,,-99.99,,2013-04-22 09:11:00,
2013-04-22 04:22:00,46.0,-99.9,-100.00,NNE,30,0.0,0.0,-999,-99.99,,,-99.99,,2013-04-22 09:22:00,
2013-04-22 04:33:00,46.0,-99.9,-100.00,NNE,30,0.0,0.0,-999,-99.99,,,-99.99,,2013-04-22 09:33:00,
2013-04-22 04:42:00,46.0,-99.9,-100.00,NNE,30,0.0,0.0,-999,-99.99,,,-99.99,,2013-04-22 09:42:00,
2013-04-22 04:53:00,46.0,-99.9,-100.00,NNE,30,0.0,0.0,-999,-99.99,,,-99.99,,2013-04-22 09:53:00,
2013-04-22 05:03:00,46.0,-99.9,-100.00,NNE,30,0.0,0.0,-999,-99.99,,,-99.99,,2013-04-22 10:03:00,
2013-04-22 05:12:00,46.0,-99.9,-100.00,NNE,30,0.0,0.0,-999,-99.99,,,-99.99,,2013-04-22 10:12:00,
2013-04-22 05:23:00,46.0,-99.9,-100.00,NNE,30,0.0,0.0,-999,-99.99,,,-99.99,,2013-04-22 10:23:00,
2013-04-22 05:33:00,46.0,-99.9,-100.00,NNE,30,0.0,0.0,-999,-99.99,,,-99.99,,2013-04-22 10:33:00,
2013-04-22 05:42:00,46.0,-99.9,-100.00,NNE,30,0.0,0.0,-999,-99.99,,,-99.99,,2013-04-22 10:42:00,
2013-04-22 05:53:00,46.0,-99.9,-100.00,NNE,30,0.0,0.0,-999,-99.99,,,-99.99,,2013-04-22 10:53:00,
2013-04-22 06:02:00,46.0,-99.9,-100.00,NNE,30,0.0,0.0,-999,-99.99,,,-99.99,,2013-04-22 11:02:00,
2013-04-22 06:12:00,47.0,-99.9,-100.00,NNE,30,0.0,0.0,-999,-99.99,,,-99.99,,2013-04-22 11:12:00,
2013-04-22 06:22:00,47.0,-99.9,-100.00,NNE,30,0.0,0.0,-999,-99.99,,,-99.99,,2013-04-22 11:22:00,
2013-04-22 06:33:00,48.0,-99.9,-100.00,NNE,30,0.0,0.0,-999,-99.99,,,-99.99,,2013-04-22 11:33:00,
2013-04-22 06:43:00,48.0,-99.9,-100.00,NNE,30,0.0,0.0,-999,-99.99,,,-99.99,,2013-04-22 11:43:00,
2013-04-22 06:53:00,49.0,-99.9,-100.00,NNE,30,0.0,0.0,-999,-99.99,,,-99.99,,2013-04-22 11:53:00,
2013-04-22 07:02:00,49.0,-99.9,-100.00,NNE,30,0.0,0.0,-999,-99.99,,,-99.99,,2013-04-22 12:02:00,
2013-04-22 07:12:00,51.0,-99.9,-100.00,NNE,30,0.0,0.0,-999,-99.99,,,-99.99,,2013-04-22 12:12:00,
2013-04-22 07:22:00,51.0,-99.9,-100.00,NNE,30,0.0,0.0,-999,-99.99,,,-99.99,,2013-04-22 12:22:00,
2013-04-22 07:32:00,52.0,-99.9,-100.00,NNE,30,0.0,0.0,-999,-99.99,,,-99.99,,2013-04-22 12:32:00,
2013-04-22 07:42:00,52.0,-99.9,-100.00,NNE,30,0.0,0.0,-999,-99.99,,,-99.99,,2013-04-22 12:42:00,
2013-04-22 07:52:00,54.0,-99.9,-100.00,NNE,30,0.0,0.0,-999,-99.99,,,-99.99,,2013-04-22 12:52:00,
2013-04-22 08:01:00,55.0,-99.9,-100.00,NE,42,0.0,1.0,-999,-99.99,,,-99.99,,2013-04-22 13:01:00,
2013-04-22 08:12:00,55.0,-99.9,-100.00,NE,42,0.0,1.0,-999,-99.99,,,-99.99,,2013-04-22 13:12:00,
2013-04-22 08:22:00,56.0,-99.9,-100.00,NNE,18,0.0,1.0,-999,-99.99,,,-99.99,,2013-04-22 13:22:00,
2013-04-22 08:32:00,56.0,-99.9,-100.00,NNE,18,0.0,0.0,-999,-99.99,,,-99.99,,2013-04-22 13:32:00,
2013-04-22 08:42:00,56.0,-99.9,-100.00,NNE,18,0.0,0.0,-999,-99.99,,,-99.99,,2013-04-22 13:42:00,
2013-04-22 08:53:00,59.0,-99.9,-100.00,ENE,57,0.0,1.0,-999,-99.99,,,-99.99,,2013-04-22 13:53:00,
2013-04-22 09:02:00,60.0,-99.9,-100.00,NNE,32,0.0,2.0,-999,-99.99,,,-99.99,,2013-04-22 14:02:00,
2013-04-22 09:12:00,62.0,-99.9,-100.00,NNE,32,0.0,0.0,-999,-99.99,,,-99.99,,2013-04-22 14:12:00,
2013-04-22 09:22:00,62.0,-99.9,-100.00,NNE,32,0.0,0.0,-999,-99.99,,,-99.99,,2013-04-22 14:22:00,
2013-04-22 09:33:00,64.0,-99.9,-100.00,NE,40,0.0,4.0,-999,-99.99,,,-99.99,,2013-04-22 14:33:00,
2013-04-22 09:42:00,64.0,-99.9,-100.00,NE,40,0.0,4.0,-999,-99.99,,,-99.99,,2013-04-22 14:42:00,
2013-04-22 09:52:00,65.0,-99.9,-100.00,NE,35,0.0,0.0,-999,-99.99,,,-99.99,,2013-04-22 14:52:00,
2013-04-22 10:02:00,67.0,-99.9,-100.00,East,82,1.0,3.0,-999,-99.99,,,-99.99,,2013-04-22 15:02:00,
2013-04-22 10:12:00,67.0,-99.9,-100.00,East,82,1.0,3.0,-999,-99.99,,,-99.99,,2013-04-22 15:12:00,
2013-04-22 10:22:00,68.0,-99.9,-100.00,North,7,0.0,2.0,-999,-99.99,,,-99.99,,2013-04-22 15:22:00,
2013-04-22 10:33:00,69.0,-99.9,-100.00,NE,46,0.0,3.0,-999,-99.99,,,-99.99,,2013-04-22 15:33:00,
2013-04-22 10:43:00,69.0,-99.9,-100.00,NE,46,0.0,3.0,-999,-99.99,,,-99.99,,2013-04-22 15:43:00,
2013-04-22 10:53:00,70.0,-99.9,-100.00,ENE,78,0.0,1.0,-999,-99.99,,,-99.99,,2013-04-22 15:53:00,
2013-04-22 11:03:00,71.0,-99.9,-100.00,East,92,1.0,3.0,-999,-99.99,,,-99.99,,2013-04-22 16:03:00,
2013-04-22 11:13:00,71.0,-99.9,-100.00,East,92,1.0,3.0,-999,-99.99,,,-99.99,,2013-04-22 16:13:00,
2013-04-22 11:23:00,73.0,-99.9,-100.00,ESE,112,0.0,0.0,-999,-99.99,,,-99.99,,2013-04-22 16:23:00,
2013-04-22 11:33:00,74.0,-99.9,-100.00,NNE,19,0.0,2.0,-999,-99.99,,,-99.99,,2013-04-22 16:33:00,
2013-04-22 11:42:00,74.0,-99.9,-100.00,NNE,19,0.0,2.0,-999,-99.99,,,-99.99,,2013-04-22 16:42:00,
2013-04-22 11:52:00,74.0,-99.9,-100.00,ENE,59,1.0,0.0,-999,-99.99,,,-99.99,,2013-04-22 16:52:00,
2013-04-22 12:02:00,75.0,-99.9,-100.00,North,5,1.0,1.0,-999,-99.99,,,-99.99,,2013-04-22 17:02:00,
2013-04-22 12:12:00,75.0,-99.9,-100.00,North,5,1.0,1.0,-999,-99.99,,,-99.99,,2013-04-22 17:12:00,
2013-04-22 12:22:00,76.0,-99.9,-100.00,North,7,0.0,0.0,-999,-99.99,,,-99.99,,2013-04-22 17:22:00,
2013-04-22 12:32:00,78.0,-99.9,-100.00,ESE,108,1.0,0.0,-999,-99.99,,,-99.99,,2013-04-22 17:32:00,
2013-04-22 12:43:00,78.0,-99.9,-100.00,ESE,108,1.0,0.0,-999,-99.99,,,-99.99,,2013-04-22 17:43:00,
2013-04-22 12:52:00,75.0,-99.9,-100.00,NNE,18,0.0,2.0,-999,-99.99,,,-99.99,,2013-04-22 17:52:00,
2013-04-22 13:02:00,77.0,-99.9,-100.00,SW,219,1.0,2.0,-999,-99.99,,,-99.99,,2013-04-22 18:02:00,
2013-04-22 13:12:00,77.0,-99.9,-100.00,SW,219,1.0,2.0,-999,-99.99,,,-99.99,,2013-04-22 18:12:00,
2013-04-22 13:22:00,77.0,-99.9,-100.00,ESE,111,2.0,2.0,-999,-99.99,,,-99.99,,2013-04-22 18:22:00,
2013-04-22 13:32:00,74.0,-99.9,-100.00,NE,47,0.0,2.0,-999,-99.99,,,-99.99,,2013-04-22 18:32:00,
2013-04-22 13:42:00,74.0,-99.9,-100.00,NE,47,0.0,2.0,-999,-99.99,,,-99.99,,2013-04-22 18:42:00,
2013-04-22 13:52:00,73.0,-99.9,-100.00,ENE,60,0.0,1.0,-999,-99.99,,,-99.99,,2013-04-22 18:52:00,
2013-04-22 14:02:00,77.0,-99.9,-100.00,ENE,67,0.0,1.0,-999,-99.99,,,-99.99,,2013-04-22 19:02:00,
2013-04-22 14:12:00,77.0,-99.9,-100.00,ENE,67,0.0,1.0,-999,-99.99,,,-99.99,,2013-04-22 19:12:00,
2013-04-22 14:22:00,75.0,-99.9,-100.00,NNE,30,0.0,0.0,-999,-99.99,,,-99.99,,2013-04-22 19:22:00,
2013-04-22 14:32:00,73.0,-99.9,-100.00,ENE,67,1.0,2.0,-999,-99.99,,,-99.99,,2013-04-22 19:32:00,
2013-04-22 14:42:00,73.0,-99.9,-100.00,ENE,67,1.0,2.0,-999,-99.99,,,-99.99,,2013-04-22 19:42:00,
2013-04-22 14:53:00,76.0,-99.9,-100.00,North,2,1.0,0.0,-999,-99.99,,,-99.99,,2013-04-22 19:53:00,
2013-04-22 15:02:00,78.0,-99.9,-100.00,NNE,16,0.0,4.0,-999,-99.99,,,-99.99,,2013-04-22 20:02:00,
2013-04-22 15:11:00,78.0,-99.9,-100.00,NNE,16,0.0,4.0,-999,-99.99,,,-99.99,,2013-04-22 20:11:00,
2013-04-22 15:22:00,75.0,-99.9,-100.00,NNE,22,1.0,3.0,-999,-99.99,,,-99.99,,2013-04-22 20:22:00,
2013-04-22 15:32:00,77.0,-99.9,-100.00,NNE,16,0.0,2.0,-999,-99.99,,,-99.99,,2013-04-22 20:32:00,
2013-04-22 15:42:00,77.0,-99.9,-100.00,NNE,16,0.0,2.0,-999,-99.99,,,-99.99,,2013-04-22 20:42:00,
2013-04-22 15:52:00,77.0,-99.9,-100.00,NE,35,0.0,2.0,-999,-99.99,,,-99.99,,2013-04-22 20:52:00,
2013-04-22 16:02:00,77.0,-99.9,-100.00,East,101,0.0,1.0,-999,-99.99,,,-99.99,,2013-04-22 21:02:00,
2013-04-22 16:12:00,76.0,-99.9,-100.00,ENE,68,0.0,3.0,-999,-99.99,,,-99.99,,2013-04-22 21:12:00,
2013-04-22 16:22:00,76.0,-99.9,-100.00,ENE,68,0.0,3.0,-999,-99.99,,,-99.99,,2013-04-22 21:22:00,
2013-04-22 16:33:00,76.0,-99.9,-100.00,NNE,28,0.0,3.0,-999,-99.99,,,-99.99,,2013-04-22 21:33:00,
2013-04-22 16:43:00,76.0,-99.9,-100.00,NNE,28,0.0,3.0,-999,-99.99,,,-99.99,,2013-04-22 21:43:00,
2013-04-22 16:53:00,75.0,-99.9,-100.00,NE,52,1.0,2.0,-999,-99.99,,,-99.99,,2013-04-22 21:53:00,
2013-04-22 17:03:00,75.0,-99.9,-100.00,NNE,12,0.0,1.0,-999,-99.99,,,-99.99,,2013-04-22 22:03:00,
2013-04-22 17:12:00,75.0,-99.9,-100.00,NNE,12,0.0,1.0,-999,-99.99,,,-99.99,,2013-04-22 22:12:00,
2013-04-22 17:22:00,76.0,-99.9,-100.00,NNE,12,0.0,0.0,-999,-99.99,,,-99.99,,2013-04-22 22:22:00,
2013-04-22 17:33:00,75.0,-99.9,-100.00,East,91,1.0,3.0,-999,-99.99,,,-99.99,,2013-04-22 22:33:00,
2013-04-22 17:42:00,75.0,-99.9,-100.00,East,91,1.0,3.0,-999,-99.99,,,-99.99,,2013-04-22 22:42:00,
2013-04-22 17:52:00,74.0,-99.9,-100.00,NNE,32,0.0,2.0,-999,-99.99,,,-99.99,,2013-04-22 22:52:00,
2013-04-22 18:02:00,74.0,-99.9,-100.00,NNE,32,0.0,0.0,-999,-99.99,,,-99.99,,2013-04-22 23:02:00,
2013-04-22 18:12:00,74.0,-99.9,-100.00,NNE,33,0.0,0.0,-999,-99.99,,,-99.99,,2013-04-22 23:12:00,
2013-04-22 18:22:00,74.0,-99.9,-100.00,NNE,33,0.0,0.0,-999,-99.99,,,-99.99,,2013-04-22 23:22:00,
2013-04-22 18:33:00,73.0,-99.9,-100.00,NNE,32,0.0,2.0,-999,-99.99,,,-99.99,,2013-04-22 23:33:00,
2013-04-22 18:43:00,73.0,-99.9,-100.00,NNE,32,0.0,2.0,-999,-99.99,,,-99.99,,2013-04-22 23:43:00,
2013-04-22 18:52:00,73.0,-99.9,-100.00,NE,50,0.0,1.0,-999,-99.99,,,-99.99,,2013-04-22 23:52:00,
2013-04-22 19:02:00,72.0,-99.9,-100.00,NE,50,0.0,0.0,-999,-99.99,,,-99.99,,2013-04-23 00:02:00,
2013-04-22 19:12:00,72.0,-99.9,-100.00,NE,50,0.0,0.0,-999,-99.99,,,-99.99,,2013-04-23 00:12:00,
2013-04-22 19:22:00,71.0,-99.9,-100.00,NE,50,0.0,0.0,-999,-99.99,,,-99.99,,2013-04-23 00:22:00,
2013-04-22 19:32:00,71.0,-99.9,-100.00,NE,52,0.0,3.0,-999,-99.99,,,-99.99,,2013-04-23 00:32:00,
2013-04-22 19:42:00,71.0,-99.9,-100.00,NE,52,0.0,3.0,-999,-99.99,,,-99.99,,2013-04-23 00:42:00,
2013-04-22 19:52:00,70.0,-99.9,-100.00,ENE,73,1.0,2.0,-999,-99.99,,,-99.99,,2013-04-23 00:52:00,
2013-04-22 20:01:00,69.0,-99.9,-100.00,NE,49,0.0,0.0,-999,-99.99,,,-99.99,,2013-04-23 01:01:00,
2013-04-22 20:11:00,69.0,-99.9,-100.00,NE,49,0.0,0.0,-999,-99.99,,,-99.99,,2013-04-23 01:11:00,
2013-04-22 20:22:00,68.0,-99.9,-100.00,NE,49,0.0,0.0,-999,-99.99,,,-99.99,,2013-04-23 01:22:00,
2013-04-22 20:32:00,68.0,-99.9,-100.00,NE,49,0.0,0.0,-999,-99.99,,,-99.99,,2013-04-23 01:32:00,
2013-04-22 20:42:00,68.0,-99.9,-100.00,NE,49,0.0,0.0,-999,-99.99,,,-99.99,,2013-04-23 01:42:00,
2013-04-22 20:52:00,67.0,-99.9,-100.00,NE,49,0.0,0.0,-999,-99.99,,,-99.99,,2013-04-23 01:52:00,
2013-04-22 21:02:00,66.0,-99.9,-100.00,NE,49,0.0,0.0,-999,-99.99,,,-99.99,,2013-04-23 02:02:00,
2013-04-22 21:12:00,66.0,-99.9,-100.00,NE,49,0.0,0.0,-999,-99.99,,,-99.99,,2013-04-23 02:12:00,
2013-04-22 21:22:00,66.0,-99.9,-100.00,NE,49,0.0,0.0,-999,-99.99,,,-99.99,,2013-04-23 02:22:00,
2013-04-22 21:33:00,65.0,-99.9,-100.00,NE,49,0.0,0.0,-999,-99.99,,,-99.99,,2013-04-23 02:33:00,
2013-04-22 21:42:00,65.0,-99.9,-100.00,NE,49,0.0,0.0,-999,-99.99,,,-99.99,,2013-04-23 02:42:00,
2013-04-22 21:52:00,64.0,-99.9,-100.00,NE,49,0.0,0.0,-999,-99.99,,,-99.99,,2013-04-23 02:52:00,
2013-04-22 22:02:00,64.0,-99.9,-100.00,NE,49,0.0,0.0,-999,-99.99,,,-99.99,,2013-04-23 03:02:00,
2013-04-22 22:11:00,64.0,-99.9,-100.00,NE,49,0.0,0.0,-999,-99.99,,,-99.99,,2013-04-23 03:11:00,
2013-04-22 22:22:00,63.0,-99.9,-100.00,NE,49,0.0,0.0,-999,-99.99,,,-99.99,,2013-04-23 03:22:00,
2013-04-22 22:33:00,62.0,-99.9,-100.00,NE,49,0.0,0.0,-999,-99.99,,,-99.99,,2013-04-23 03:33:00,
2013-04-22 22:43:00,62.0,-99.9,-100.00,NE,49,0.0,0.0,-999,-99.99,,,-99.99,,2013-04-23 03:43:00,
2013-04-22 22:53:00,62.0,-99.9,-100.00,NE,49,0.0,0.0,-999,-99.99,,,-99.99,,2013-04-23 03:53:00,
2013-04-22 23:03:00,61.0,-99.9,-100.00,NE,49,0.0,0.0,-999,-99.99,,,-99.99,,2013-04-23 04:03:00,
2013-04-22 23:13:00,61.0,-99.9,-100.00,NE,49,0.0,0.0,-999,-99.99,,,-99.99,,2013-04-23 04:13:00,
2013-04-22 23:23:00,60.0,-99.9,-100.00,NE,49,0.0,0.0,-999,-99.99,,,-99.99,,2013-04-23 04:23:00,
2013-04-22 23:33:00,59.0,-99.9,-100.00,NE,49,0.0,0.0,-999,-99.99,,,-99.99,,2013-04-23 04:33:00,
2013-04-22 23:44:00,59.0,-99.9,-100.00,NE,49,0.0,0.0,-999,-99.99,,,-99.99,,2013-04-23 04:44:00,
2013-04-22 23:53:00,59.0,-99.9,-100.00,NE,49,0.0,0.0,-999,-99.99,,,-99.99,,2013-04-23 04:53:00,